NIMBUS 2 DEB, 42441

Orbit data source: Space-Track

NIMBUS 2 DEB, 42441 is space debris in SSO originally from a launch on Sun, 15 May 1966 UTC launched from the Air Force Western Test Range (AFWTR). Debris objects in space refer to the collection of defunct objects orbiting the Earth. Examples of debris include non-operational satellites, rocket bodies, and fragments generated from explosions, collisions, or faulty payload assembly.

Loading next visibility...
Identifier
42441, 1966-040BU
Orbit
SSO
Country
Flag of USUS
Related business
Manufacturer
Unknown
Mission
Spacecraft
Bus & Motor
Unknown
Mass
Unknown
Launch date (UTC)
1966-05-15 (59 years ago)
Launch vehicle
Unknown
Launch site
Air Force Western Test Range (AFWTR)
Object type
Payload
Rocket body
Debris
Shape & HBR
Unknown shape, 0.1 m
Radar Cross Section
Small (<0.1 m²)

Expand to show TLE details & history
Last TLE update: 2 days ago

TLE from 2 days ago
0 NIMBUS 2 DEB
1 42441U 66040BU  25306.99006451  .00002871  00000-0  50080-2 0  9994
2 42441 100.4361 141.6010 0033717  38.8067 321.5474 13.44176974433303
Epoch: 2025-11-02T23:45Z
TLE epoch observation values (Epoch: 2025-11-02T23:45:41.573Z)
Latitude
-0.00002°
Longitude
102.67991°
Altitude
1,076.812 km
Speed
7.323 km/s
True Right ascension
09h 26m 24s
True Declination
0° 00' 00"
Sunlit
Object was in daylight at epoch
Visualization orbit readout
Latitude
Unknown
Longitude
Unknown
Altitude
Unknown
Speed
Unknown
Apparent Right ascension
Unknown
Apparent Declination
Unknown
Sunlit
N/A
Visualization observer readout
Local Sidereal Time
08:03:58
Azimuth
Unknown
Elevation
Unknown
Doppler factor
Unknown
Orbital elements
Apogee altitude
1,116.292 km
Perigee altitude
1,065.924 km
Semi-major axis
7,469.245 km
Eccentricity
0.00337
Inclination
100.4361°
RAAN
141.601°
Arg. of periapsis
38.8067°
True anomaly
321.30634°
Mean anomaly
321.5474°
Eccentric anomaly
321.42695°
Mean motion
3.36224 °/min
Orbital period
107.07 mins
BSTAR
0.005008
Loading maneuver chart data...
Computing Atmospheric mass density...
Loading historical data...
Loading historical data...
Loading historical data...
Loading historical data...
Loading historical data...
Loading historical data...
Loading historical data...

Documentation

Showing up to 5 results
|